Location: Mascot Post Office (historical)
(40.2645°N, 99.5462°W)
Time: 01:48:19
(UTC+00:00)

BREEZE-M DEB (TANK) - Pass Details

Date: 14 July 2020
Orbit: 328 x 12048 km, 49.6° (Epoch: 14 August)

Event Time Altitude Azimuth Distance (km) Brightness Sun altitude
Rises 05:12:03 0° 301° (WNW) 3,542 7.1 -24.5°
Reaches altitude 10° 05:15:30 10° 311° (NW) 1,861 5.6 -24.8°
Enters shadow 05:18:07 29° 351° (N) 762 3.4 -25.0°
